Weather History for Augusta Bush, GA

Change the Weather History Date:

Saturday, December 17, 2011

  Actual Average Record
Temperature  
Mean Temperature 53 °F 47 °F  
Max Temperature 63 °F 59 °F 79 °F (1933)
Min Temperature 42 °F 34 °F 15 °F (1955)
Degree Days  
Heating Degree Days 12 18  
Month to date heating degree days 243 282  
Since 1 July heating degree days 681 704  
Cooling Degree Days 0 0  
Month to date cooling degree days 1 0  
Year to date cooling degree days 2514 2086  
Growing Degree Days 4 (Base 50)    
Moisture  
Dew Point 44 °F    
Average Humidity 65    
Maximum Humidity 86    
Minimum Humidity 43    
Precipitation  
Precipitation 0.00 in 0.11 in 0.93 in (1930)
Month to date precipitation 0.12 1.79  
Year to date precipitation 28.27 41.97  
Sea Level Pressure  
Sea Level Pressure 30.17 in    
Wind  
Wind Speed 6 mph (WNW)    
Max Wind Speed 15 mph    
Max Gust Speed 18 mph    
Visibility 10 miles    
Events      
T = Trace of Precipitation, MM = Missing Value Source: NWS Daily Summary

Daily Weather History Graph

Daily Weather History Graph

Search for Another Location

Airport:

Trip Planner

Search our weather history database for the weather conditions in past years. The results will help you decide how hot, cold, wet, or windy it might be!

Date:

Astronomy

Dec. 17, 2011 Rise Set
Actual Time 7:25 AM EST 5:22 PM EST
Civil Twilight 6:57 AM EST 5:49 PM EST
Nautical Twilight 6:26 AM EST 6:20 PM EST
Astronomical Twilight 5:56 AM EST 6:51 PM EST
Moon No Moon Rise 11:59 AM EST (12/17)
Length of Visible Light 10h 52m
Length of Day
9h 57m
Waning Gibbous, 54% of the Moon is Illuminated
Dec 17
Waning Gibbous
Dec 17
Last Quarter
Dec 24
New
Jan 1
First Quarter
Jan 9
Full

Hourly Weather History & Observations

Time (EST) Temp. Windchill Dew Point Humidity Pressure Visibility Wind Dir Wind Speed Gust Speed Precip Events Conditions
12:53 AM 60.1 °F - 54.0 °F 80% 30.10 in 10.0 mi WSW 5.8 mph - N/A   Mostly Cloudy
1:53 AM 62.1 °F - 55.0 °F 78% 30.09 in 10.0 mi WSW 4.6 mph - N/A   Overcast
2:53 AM 57.9 °F - 54.0 °F 87% 30.10 in 10.0 mi West 3.5 mph - N/A   Clear
3:53 AM 57.0 °F - 53.1 °F 87% 30.12 in 10.0 mi NW 5.8 mph - N/A   Partly Cloudy
4:53 AM 55.0 °F - 51.1 °F 86% 30.13 in 10.0 mi NW 8.1 mph - N/A   Clear
5:53 AM 53.1 °F - 48.9 °F 86% 30.15 in 10.0 mi NW 6.9 mph - N/A   Clear
6:53 AM 53.1 °F - 48.0 °F 83% 30.17 in 10.0 mi NNW 9.2 mph - N/A   Clear
7:53 AM 51.1 °F - 46.9 °F 86% 30.18 in 10.0 mi NW 3.5 mph - N/A   Clear
8:16 AM 51.8 °F - 48.2 °F 88% 30.19 in 10.0 mi WNW 4.6 mph - N/A   Mostly Cloudy
8:53 AM 52.0 °F - 46.9 °F 83% 30.20 in 10.0 mi NW 5.8 mph - N/A   Overcast
9:53 AM 53.6 °F - 46.4 °F 77% 30.23 in 10.0 mi NNW 6.9 mph - N/A   Overcast
10:53 AM 57.9 °F - 46.0 °F 65% 30.22 in 10.0 mi WNW 5.8 mph - N/A   Scattered Clouds
11:53 AM 60.1 °F - 45.0 °F 57% 30.19 in 10.0 mi NNW 6.9 mph - N/A   Clear
12:53 PM 61.0 °F - 42.1 °F 50% 30.17 in 10.0 mi Variable 6.9 mph - N/A   Clear
1:53 PM 62.1 °F - 41.0 °F 46% 30.14 in 10.0 mi WNW 6.9 mph - N/A   Clear
2:53 PM 63.0 °F - 41.0 °F 45% 30.15 in 10.0 mi WNW 9.2 mph - N/A   Clear
3:53 PM 62.1 °F - 39.9 °F 44% 30.15 in 10.0 mi NW 8.1 mph - N/A   Clear
4:53 PM 59.0 °F - 39.9 °F 49% 30.16 in 10.0 mi WNW 5.8 mph - N/A   Clear
5:53 PM 53.1 °F - 39.0 °F 59% 30.17 in 10.0 mi WNW 3.5 mph - N/A   Clear
6:53 PM 45.0 °F - 37.9 °F 76% 30.18 in 10.0 mi Calm Calm - N/A   Clear
7:53 PM 46.0 °F 44.8 °F 37.9 °F 73% 30.21 in 10.0 mi WNW 3.5 mph - N/A   Clear
8:53 PM 50.0 °F - 34.0 °F 54% 30.22 in 10.0 mi WNW 11.5 mph - N/A   Clear
9:53 PM 50.0 °F - 30.9 °F 48% 30.23 in 10.0 mi West 8.1 mph - N/A   Clear
10:53 PM 46.0 °F 44.8 °F 30.9 °F 56% 30.24 in 10.0 mi West 3.5 mph - N/A   Clear
11:53 PM 44.1 °F 42.5 °F 30.0 °F 58% 30.23 in 10.0 mi West 3.5 mph - N/A   Clear